Vancouver, WA

5:21 AM PDT on October 23, 2017 (GMT -0700)
Pearson

Weather History for KVUO - March, 2013

Change the Weather History Date:

Monday, March 4, 2013

  Actual Average Record
Temperature  
Mean Temperature 42 °F 46 °F  
Max Temperature 58 °F 55 °F 70 °F (1987)
Min Temperature 26 °F 37 °F 19 °F (1896)
Degree Days  
Heating Degree Days 23    
Month to date heating degree days 74  
Since 1 July heating degree days 3106  
Cooling Degree Days 0    
Month to date cooling degree days 0  
Year to date cooling degree days 0  
Moisture  
Dew Point 28 °F    
Average Humidity 60    
Maximum Humidity 92    
Minimum Humidity 28    
Precipitation  
Precipitation 0.00 in 0.11 in 1.13 in (1996)
Month to date precipitation 0.03 0.46  
Year to date precipitation 4.59 9.99  
Snow  
Snow 0.00 in - - ()
Month to date snowfall 0.0  
Snow Depth 0.00 in    
Sea Level Pressure  
Sea Level Pressure 30.10 in    
Wind  
Wind Speed 6 mph (East)    
Max Wind Speed 16 mph    
Max Gust Speed 22 mph    
Visibility 9 miles    
Events      
T = Trace of Precipitation, MM = Missing Value Source: NWS Daily Summary

Daily Weather History Graph

Daily Weather History Graph

Search for Another Location

Airport or City:

Trip Planner

Search our weather history database for the weather conditions in past years. The results will help you decide how hot, cold, wet, or windy it might be!

Date:

Astronomy

Mar. 04, 2013 Rise Set
Actual Time 6:43 AM PST 6:02 PM PST
Civil Twilight 6:13 AM PST 6:31 PM PST
Nautical Twilight 5:39 AM PST 7:06 PM PST
Astronomical Twilight 5:04 AM PST 7:40 PM PST
Moon 1:11 AM PST (3/4) 10:35 AM PST (3/4)
Length of Visible Light 12h 18m
Length of Day
11h 19m
Waning Gibbous, 51% of the Moon is Illuminated
Mar 4
Waning Gibbous
Mar 4
Last Quarter
Mar 11
New
Mar 19
First Quarter
Mar 27
Full

Hourly Weather History & Observations

Time (PST) Temp. Windchill Dew Point Humidity Pressure Visibility Wind Dir Wind Speed Gust Speed Precip Events Conditions
12:53 AM 35.1 °F - 32.0 °F 89% 30.26 in 10.0 mi Calm Calm - N/A   Clear
1:53 AM 33.1 °F - 30.9 °F 92% 30.25 in 10.0 mi Calm Calm - N/A   Clear
2:53 AM 30.0 °F - 26.1 °F 85% 30.24 in 9.0 mi Calm Calm - N/A   Clear
3:34 AM 28.4 °F - 26.6 °F 93% 30.22 in 10.0 mi Calm Calm - N/A   Partly Cloudy
3:53 AM 28.0 °F - 25.0 °F 88% 30.23 in 8.0 mi Calm Calm - N/A   Partly Cloudy
4:53 AM 27.0 °F - 25.0 °F 92% 30.21 in 9.0 mi Calm Calm - N/A   Clear
5:53 AM 30.0 °F - 28.0 °F 92% 30.21 in 10.0 mi Calm Calm - N/A   Clear
6:53 AM 30.0 °F - 27.0 °F 88% 30.18 in 10.0 mi Calm Calm - N/A   Clear
7:16 AM 30.2 °F 26.7 °F 28.4 °F 93% 30.18 in 10.0 mi NW 3.5 mph - N/A   Scattered Clouds
7:27 AM 30.2 °F 26.7 °F 28.4 °F 93% 30.18 in 10.0 mi NW 3.5 mph - N/A   Mostly Cloudy
7:53 AM 30.9 °F 27.5 °F 28.9 °F 92% 30.18 in 10.0 mi NW 3.5 mph - N/A   Scattered Clouds
8:18 AM 32.0 °F 28.7 °F 30.2 °F 93% 30.17 in 2.5 mi Variable 3.5 mph - N/A   Mostly Cloudy
8:41 AM 33.8 °F - 30.2 °F 87% 30.16 in 3.0 mi Calm Calm - 0.01 in   Overcast
8:53 AM 34.0 °F - 30.9 °F 89% 30.16 in 10.0 mi Calm Calm - 0.01 in   Mostly Cloudy
9:02 AM 35.6 °F - 32.0 °F 87% 30.15 in 10.0 mi Calm Calm - N/A   Scattered Clouds
9:53 AM 39.9 °F 35.8 °F 34.0 °F 79% 30.14 in 10.0 mi West 5.8 mph - N/A   Clear
10:53 AM 44.1 °F 41.5 °F 34.0 °F 68% 30.11 in 10.0 mi West 4.6 mph - N/A   Clear
11:53 AM 48.9 °F - 32.0 °F 52% 30.10 in 10.0 mi Variable 4.6 mph - N/A   Clear
12:53 PM 55.0 °F - 25.0 °F 31% 30.06 in 10.0 mi East 11.5 mph 17.3 mph N/A   Clear
1:53 PM 55.9 °F - 25.0 °F 30% 30.03 in 10.0 mi East 15.0 mph - N/A   Clear
2:53 PM 57.0 °F - 25.0 °F 29% 29.99 in 10.0 mi East 13.8 mph 21.9 mph N/A   Clear
3:53 PM 57.0 °F - 24.1 °F 28% 29.98 in 10.0 mi East 12.7 mph 20.7 mph N/A   Clear
4:53 PM 55.9 °F - 25.0 °F 30% 29.97 in 10.0 mi ESE 10.4 mph 19.6 mph N/A   Clear
5:53 PM 52.0 °F - 24.1 °F 34% 29.95 in 10.0 mi ESE 10.4 mph 16.1 mph N/A   Clear
6:53 PM 48.9 °F - 28.0 °F 44% 29.95 in 10.0 mi ESE 9.2 mph - N/A   Clear
7:53 PM 48.0 °F - 27.0 °F 44% 29.94 in 10.0 mi ESE 9.2 mph - N/A   Clear
8:53 PM 45.0 °F 42.6 °F 27.0 °F 49% 29.94 in 10.0 mi ESE 4.6 mph - N/A   Clear
9:53 PM 45.0 °F 41.2 °F 25.0 °F 46% 29.94 in 10.0 mi ESE 6.9 mph - N/A   Clear
11:53 PM 44.1 °F 41.5 °F 27.0 °F 51% 29.92 in 10.0 mi SE 4.6 mph - N/A   Clear